ZA-AEROSAT

Last updated on June 1, 2019, 12:02 a.m. UTC

1 42713U 98067LU  19151.03730059  .02928871  12128-4  58594-3 0  9990
2 42713  51.6172 356.2792 0012791 275.7272  84.2292 16.30383675116521

Satellite is not in orbit.